Back to catalog

STARLINK-32105

AliveCommunicationsVLEO
NORAD 59689·PAYLOAD·🇺🇸 United States

Launched May 8, 2024 from Cape Canaveral Space Force Station

Loading…

Next Passes (next 24 hours)

TLE

FreshSource: CelesTrak SupGP

Epoch: Sep 14, 2026, 13:37 UTC

1 59689C 24086H   26257.56784722 -.00007375  00000+0 -26718-3 0  2577
2 59689  42.9998  72.9485 0001271 261.5228  29.1031 15.27576660    14

Track STARLINK-32105 in real time with AllMySat

Download on the App Store